�������l�o���
Date,Time,MP-1(��Sv/h),MP-2(��Sv/h),MP-3(��Sv/h),MP-4(��Sv/h),MP-5(��Sv/h),MP-6(��Sv/h),MP-7(��Sv/h),MP-8(��Sv/h),����,����(m/s),���J
2020/07/05,00:00,0.653,0.919,0.599,1.117,0.790,0.386,0.659,0.622,�k��,0.9,�L
2020/07/05,00:10,0.653,0.919,0.599,1.119,0.789,0.388,0.659,0.622,���쓌,1.1,�L
2020/07/05,00:20,0.650,0.919,0.598,1.116,0.788,0.386,0.659,0.621,�k�k��,1.5,�L
2020/07/05,00:30,0.650,0.918,0.597,1.113,0.785,0.386,0.659,0.622,�k,1.9,�L
2020/07/05,00:40,0.649,0.917,0.596,1.114,0.789,0.386,0.659,0.621,�k,2.3,�L
2020/07/05,00:50,0.651,0.917,0.597,1.114,0.788,0.386,0.660,0.622,�k,2.9,�L
2020/07/05,01:00,0.649,0.916,0.599,1.116,0.790,0.386,0.659,0.621,�k�k��,3.0,��
2020/07/05,01:10,0.651,0.917,0.598,1.116,0.789,0.387,0.658,0.621,�k,3.3,��
2020/07/05,01:20,0.651,0.919,0.596,1.114,0.789,0.386,0.659,0.622,�k�k��,3.6,��
2020/07/05,01:30,0.651,0.919,0.598,1.118,0.790,0.385,0.660,0.623,�k,3.2,��
2020/07/05,01:40,0.652,0.918,0.599,1.117,0.791,0.386,0.659,0.623,�k,3.4,��
2020/07/05,01:50,0.649,0.920,0.596,1.114,0.791,0.386,0.660,0.624,�k,2.5,��
2020/07/05,02:00,0.649,0.918,0.598,1.118,0.790,0.385,0.660,0.622,�k,2.5,��
2020/07/05,02:10,0.649,0.918,0.598,1.117,0.792,0.385,0.659,0.622,�k,2.0,��
2020/07/05,02:20,0.651,0.920,0.597,1.117,0.790,0.387,0.661,0.623,�k,2.6,��
2020/07/05,02:30,0.651,0.921,0.599,1.118,0.791,0.386,0.661,0.622,�k,2.5,��
2020/07/05,02:40,0.650,0.918,0.599,1.119,0.792,0.387,0.660,0.622,�k,2.6,��
2020/07/05,02:50,0.651,0.920,0.597,1.119,0.792,0.386,0.660,0.624,�k�k��,2.3,��
2020/07/05,03:00,0.651,0.919,0.599,1.119,0.793,0.385,0.659,0.624,�k�k��,1.5,��
2020/07/05,03:10,0.651,0.919,0.599,1.119,0.792,0.387,0.661,0.623,�k�k��,1.7,��
2020/07/05,03:20,0.650,0.919,0.599,1.119,0.791,0.386,0.660,0.622,�k�k��,2.0,��
2020/07/05,03:30,0.653,0.921,0.599,1.119,0.793,0.387,0.662,0.622,�k�k��,2.0,��
2020/07/05,03:40,0.651,0.921,0.598,1.120,0.793,0.387,0.662,0.623,�k�k��,2.5,��
2020/07/05,03:50,0.652,0.921,0.597,1.120,0.793,0.387,0.661,0.624,�k�k��,2.5,��
2020/07/05,04:00,0.652,0.923,0.600,1.119,0.794,0.387,0.663,0.624,�k�k��,3.0,��
2020/07/05,04:10,0.651,0.923,0.597,1.119,0.796,0.386,0.662,0.624,�k��,3.3,��
2020/07/05,04:20,0.652,0.922,0.598,1.122,0.795,0.386,0.663,0.625,�k��,3.2,��
2020/07/05,04:30,0.653,0.923,0.598,1.120,0.795,0.387,0.662,0.626,�k,2.8,�L
2020/07/05,04:40,0.652,0.922,0.600,1.119,0.795,0.387,0.662,0.626,�k,2.6,��
2020/07/05,04:50,0.651,0.922,0.599,1.123,0.795,0.387,0.663,0.624,�k,2.2,�L
2020/07/05,05:00,0.651,0.923,0.599,1.120,0.797,0.387,0.661,0.624,�k�k��,3.4,��
2020/07/05,05:10,0.652,0.922,0.600,1.122,0.794,0.388,0.662,0.625,�k�k��,3.5,�L
2020/07/05,05:20,0.650,0.924,0.600,1.123,0.794,0.387,0.660,0.625,�k�k��,3.7,�L
2020/07/05,05:30,0.652,0.920,0.598,1.121,0.796,0.386,0.662,0.624,�k�k��,3.6,�L
2020/07/05,05:40,0.651,0.922,0.599,1.121,0.796,0.386,0.661,0.625,�k�k��,4.0,�L
2020/07/05,05:50,0.651,0.920,0.600,1.120,0.797,0.387,0.661,0.625,�k�k��,3.6,��
2020/07/05,06:00,0.652,0.922,0.599,1.119,0.795,0.387,0.663,0.624,�k�k��,3.4,�L
2020/07/05,06:10,0.652,0.920,0.599,1.122,0.795,0.386,0.662,0.624,�k�k��,3.1,�L
2020/07/05,06:20,0.651,0.921,0.599,1.123,0.796,0.387,0.661,0.625,�k�k��,3.4,�L
2020/07/05,06:30,0.650,0.922,0.598,1.122,0.798,0.386,0.661,0.626,�k�k��,3.3,�L
2020/07/05,06:40,0.651,0.924,0.599,1.122,0.796,0.386,0.661,0.625,�k�k��,2.6,�L
2020/07/05,06:50,0.649,0.921,0.599,1.122,0.796,0.386,0.661,0.626,�k�k��,2.9,�L
2020/07/05,07:00,0.650,0.921,0.598,1.123,0.797,0.387,0.662,0.624,�k�k��,3.4,�L
2020/07/05,07:10,0.651,0.923,0.598,1.120,0.796,0.386,0.662,0.625,�k�k��,3.3,�L
2020/07/05,07:20,0.651,0.922,0.600,1.122,0.798,0.386,0.662,0.626,�k�k��,2.8,��
2020/07/05,07:30,0.650,0.923,0.599,1.122,0.797,0.387,0.662,0.625,�k�k��,2.6,�L
2020/07/05,07:40,0.650,0.922,0.599,1.122,0.796,0.387,0.660,0.625,�k�k��,2.6,��
2020/07/05,07:50,0.650,0.923,0.598,1.123,0.799,0.387,0.662,0.623,�k�k��,2.2,��
2020/07/05,08:00,0.653,0.923,0.601,1.123,0.798,0.385,0.662,0.624,�k�k��,2.3,��
2020/07/05,08:10,0.650,0.921,0.601,1.124,0.798,0.385,0.662,0.624,�k�k��,3.0,��
2020/07/05,08:20,0.651,0.924,0.600,1.125,0.798,0.386,0.663,0.625,�k,2.9,��
2020/07/05,08:30,0.649,0.925,0.600,1.123,0.799,0.385,0.662,0.625,�k�k��,2.3,��
2020/07/05,08:40,0.650,0.922,0.600,1.123,0.798,0.384,0.662,0.624,�k��,2.5,��
2020/07/05,08:50,0.648,0.923,0.600,1.124,0.797,0.385,0.662,0.625,�k�k��,2.9,��
2020/07/05,09:00,0.649,0.922,0.601,1.123,0.793,0.387,0.663,0.624,�k��,2.6,��
2020/07/05,09:10,0.651,0.920,0.599,1.124,0.796,0.385,0.663,0.624,�k�k��,1.9,��
2020/07/05,09:20,0.652,0.919,0.599,1.125,0.797,0.385,0.662,0.626,�k��,2.0,��
2020/07/05,09:30,0.652,0.922,0.599,1.124,0.797,0.386,0.661,0.624,�k��,2.0,��
2020/07/05,09:40,0.652,0.920,0.600,1.125,0.798,0.385,0.662,0.624,�k�k��,1.9,��
2020/07/05,09:50,0.652,0.923,0.598,1.125,0.797,0.386,0.662,0.624,�k�k��,2.2,��
2020/07/05,10:00,0.651,0.924,0.600,1.127,0.797,0.385,0.662,0.624,�k�k��,2.3,��
2020/07/05,10:10,0.651,0.926,0.599,1.125,0.798,0.386,0.663,0.624,�k�k��,1.5,��
2020/07/05,10:20,0.652,0.923,0.600,1.123,0.799,0.384,0.664,0.626,�k�k��,1.9,��
2020/07/05,10:30,0.653,0.923,0.599,1.127,0.798,0.385,0.664,0.625,�k�k��,1.9,��
2020/07/05,10:40,0.652,0.924,0.600,1.125,0.800,0.385,0.664,0.626,�k,1.7,��
2020/07/05,10:50,0.650,0.924,0.599,1.125,0.799,0.385,0.663,0.624,�k�k��,1.7,��
2020/07/05,11:00,0.651,0.924,0.601,1.125,0.798,0.386,0.664,0.625,�k�k��,1.5,��
2020/07/05,11:10,0.654,0.924,0.600,1.126,0.799,0.385,0.664,0.625,�k�k��,1.7,��
2020/07/05,11:20,0.653,0.925,0.601,1.127,0.798,0.386,0.666,0.626,�k�k��,1.1,��
2020/07/05,11:30,0.653,0.924,0.600,1.127,0.800,0.387,0.664,0.626,�k�k��,0.9,��
2020/07/05,11:40,0.652,0.925,0.601,1.126,0.799,0.386,0.665,0.625,-,CALM,��
2020/07/05,11:50,0.654,0.923,0.600,1.126,0.802,0.385,0.666,0.627,�k�k��,1.4,��
2020/07/05,12:00,0.653,0.925,0.602,1.127,0.800,0.385,0.664,0.625,���k��,1.2,��
2020/07/05,12:10,0.654,0.928,0.601,1.129,0.799,0.386,0.664,0.626,���쓌,2.5,��
2020/07/05,12:20,0.653,0.927,0.602,1.128,0.800,0.386,0.664,0.625,�쓌,2.2,��
2020/07/05,12:30,0.656,0.926,0.601,1.128,0.802,0.386,0.664,0.626,�쓌,2.5,��
2020/07/05,12:40,0.655,0.926,0.602,1.129,0.801,0.385,0.664,0.624,���쓌,2.3,��
2020/07/05,12:50,0.654,0.928,0.601,1.128,0.802,0.387,0.666,0.627,��쓌,3.1,��
2020/07/05,13:00,0.656,0.930,0.601,1.129,0.802,0.386,0.665,0.624,��쓌,3.4,��
2020/07/05,13:10,0.654,0.929,0.600,1.128,0.801,0.387,0.665,0.625,��,3.1,��
2020/07/05,13:20,0.654,0.930,0.602,1.128,0.804,0.385,0.666,0.627,��쓌,2.9,��
2020/07/05,13:30,0.654,0.929,0.601,1.128,0.803,0.386,0.666,0.627,��,4.2,��
2020/07/05,13:40,0.654,0.929,0.602,1.130,0.804,0.387,0.664,0.625,��쓌,3.9,��
2020/07/05,13:50,0.655,0.931,0.603,1.129,0.803,0.387,0.667,0.624,��,2.2,��
2020/07/05,14:00,0.655,0.930,0.604,1.128,0.803,0.386,0.666,0.626,��쓌,1.2,�L
2020/07/05,14:10,0.656,0.929,0.603,1.130,0.803,0.389,0.666,0.628,���쐼,0.9,�L
2020/07/05,14:20,0.658,0.930,0.603,1.131,0.804,0.389,0.666,0.626,��,0.9,�L
2020/07/05,14:30,0.658,0.929,0.604,1.132,0.804,0.389,0.666,0.625,�쓌,0.9,�L
2020/07/05,14:40,0.658,0.931,0.604,1.132,0.805,0.390,0.665,0.627,-,CALM,�L
2020/07/05,14:50,0.657,0.933,0.605,1.132,0.805,0.390,0.666,0.628,�k�k��,0.9,�L
2020/07/05,15:00,0.657,0.933,0.606,1.131,0.809,0.390,0.666,0.627,-,CALM,�L
2020/07/05,15:10,0.659,0.933,0.604,1.130,0.804,0.391,0.666,0.627,�쓌,1.2,�L
2020/07/05,15:20,0.658,0.934,0.606,1.132,0.806,0.390,0.665,0.626,�쓌,3.0,��
2020/07/05,15:30,0.657,0.931,0.606,1.131,0.807,0.391,0.666,0.626,��,2.6,��
2020/07/05,15:40,0.658,0.933,0.605,1.131,0.808,0.390,0.665,0.627,�쓌,2.2,��
2020/07/05,15:50,0.657,0.930,0.604,1.133,0.805,0.390,0.665,0.628,�쓌,3.4,��
2020/07/05,16:00,0.656,0.928,0.604,1.132,0.804,0.388,0.665,0.626,��쓌,4.2,��
2020/07/05,16:10,0.656,0.929,0.604,1.132,0.805,0.388,0.666,0.626,��쓌,2.6,��
2020/07/05,16:20,0.654,0.928,0.604,1.131,0.803,0.388,0.667,0.626,��쓌,3.5,��
2020/07/05,16:30,0.656,0.930,0.602,1.129,0.806,0.389,0.666,0.625,��쓌,3.1,��
2020/07/05,16:40,0.654,0.932,0.602,1.132,0.804,0.389,0.665,0.626,��쓌,4.3,��
2020/07/05,16:50,0.655,0.930,0.602,1.130,0.806,0.389,0.666,0.625,��쓌,4.2,��
2020/07/05,17:00,0.654,0.931,0.602,1.131,0.804,0.390,0.666,0.626,��쓌,5.1,��
2020/07/05,17:10,0.654,0.931,0.602,1.131,0.805,0.389,0.666,0.627,��쓌,5.7,��
2020/07/05,17:20,0.656,0.933,0.601,1.130,0.806,0.389,0.665,0.626,��,2.9,��
2020/07/05,17:30,0.657,0.932,0.601,1.131,0.805,0.388,0.668,0.626,��쓌,3.5,��
2020/07/05,17:40,0.656,0.931,0.603,1.132,0.807,0.389,0.666,0.626,��,3.4,��
2020/07/05,17:50,0.656,0.932,0.605,1.131,0.805,0.390,0.666,0.625,��,2.0,��
2020/07/05,18:00,0.654,0.933,0.602,1.132,0.806,0.389,0.668,0.627,��쓌,2.9,��
2020/07/05,18:10,0.655,0.934,0.603,1.132,0.805,0.390,0.667,0.625,��쓌,3.2,��
2020/07/05,18:20,0.656,0.935,0.605,1.132,0.807,0.391,0.665,0.626,��쓌,3.4,��
2020/07/05,18:30,0.657,0.934,0.604,1.131,0.806,0.391,0.667,0.627,��쓌,3.5,��
2020/07/05,18:40,0.656,0.935,0.604,1.134,0.805,0.389,0.667,0.628,��쓌,3.2,��
2020/07/05,18:50,0.656,0.938,0.603,1.133,0.804,0.390,0.667,0.628,��쓌,3.2,��
2020/07/05,19:00,0.657,0.935,0.604,1.131,0.809,0.390,0.667,0.629,��,4.4,��
2020/07/05,19:10,0.655,0.933,0.606,1.132,0.807,0.390,0.667,0.626,��,4.2,��
2020/07/05,19:20,0.656,0.934,0.604,1.132,0.807,0.390,0.667,0.628,��쓌,3.6,��
2020/07/05,19:30,0.657,0.935,0.605,1.135,0.806,0.391,0.668,0.627,��,3.0,��
2020/07/05,19:40,0.656,0.935,0.605,1.133,0.805,0.390,0.665,0.626,��쓌,3.4,��
2020/07/05,19:50,0.658,0.936,0.606,1.132,0.806,0.391,0.668,0.629,��,4.4,��
2020/07/05,20:00,0.657,0.935,0.604,1.135,0.807,0.391,0.670,0.627,��쓌,3.4,��
2020/07/05,20:10,0.656,0.936,0.606,1.135,0.807,0.391,0.669,0.628,��,3.7,��
2020/07/05,20:20,0.657,0.936,0.606,1.132,0.809,0.392,0.667,0.627,��,4.4,��
2020/07/05,20:30,0.656,0.938,0.605,1.132,0.807,0.391,0.667,0.627,��쓌,3.1,��
2020/07/05,20:40,0.657,0.937,0.605,1.133,0.808,0.391,0.666,0.627,��,3.2,��
2020/07/05,20:50,0.658,0.939,0.605,1.133,0.807,0.392,0.669,0.627,��쐼,2.3,��
2020/07/05,21:00,0.657,0.937,0.605,1.134,0.810,0.392,0.666,0.628,��쓌,3.1,��
2020/07/05,21:10,0.657,0.938,0.604,1.135,0.807,0.393,0.666,0.629,��,2.0,��
2020/07/05,21:20,0.658,0.938,0.606,1.134,0.810,0.391,0.667,0.627,��,1.7,��
2020/07/05,21:30,0.659,0.938,0.604,1.133,0.810,0.392,0.667,0.628,��쐼,2.0,��
2020/07/05,21:40,0.659,0.938,0.605,1.135,0.811,0.393,0.668,0.629,��,1.7,��
2020/07/05,21:50,0.658,0.939,0.605,1.135,0.810,0.392,0.668,0.628,��,1.5,��
2020/07/05,22:00,0.658,0.937,0.605,1.134,0.809,0.391,0.667,0.630,�쐼,0.6,��
2020/07/05,22:10,0.659,0.937,0.605,1.135,0.810,0.392,0.668,0.629,�k�k��,1.2,��
2020/07/05,22:20,0.659,0.937,0.605,1.134,0.809,0.394,0.667,0.629,�k��,0.9,��
2020/07/05,22:30,0.659,0.937,0.605,1.134,0.813,0.393,0.667,0.630,�k�k��,0.8,��
2020/07/05,22:40,0.658,0.937,0.606,1.134,0.810,0.391,0.666,0.628,�k�k��,1.7,��
2020/07/05,22:50,0.660,0.938,0.604,1.133,0.811,0.391,0.665,0.629,�k�k��,2.3,��
2020/07/05,23:00,0.661,0.938,0.606,1.134,0.809,0.390,0.667,0.630,�k�k��,2.3,��
2020/07/05,23:10,0.660,0.940,0.604,1.135,0.810,0.392,0.668,0.630,�k,2.3,��
2020/07/05,23:20,0.660,0.938,0.607,1.135,0.811,0.389,0.666,0.627,�k�k��,3.2,��
2020/07/05,23:30,0.661,0.938,0.606,1.134,0.810,0.390,0.667,0.628,�k,3.7,��
2020/07/05,23:40,0.659,0.937,0.607,1.134,0.810,0.391,0.667,0.629,�k,2.8,��
2020/07/05,23:50,0.660,0.935,0.606,1.135,0.811,0.391,0.666,0.630,�k�k��,1.9,��
